Regional Weather Roundup
Issued by NWS Northern Indiana

Home | Current Version | Previous Version | Text Only | Print | Product List | Glossary Off
Versions: 1 2 3 4 5 6 7 8 9 10 11 12 13 14 15 16 17 18 19 20 21 22 23 24 25 26 27 28 29 30 31 32 33 34 35 36 37 38 39 40 41 42 43 44 45 46 47 48 49 50

000
ASUS43 KIWX 060300
RWRIWX

KIWX WEATHER ROUNDUP
NATIONAL WEATHER SERVICE NORTHERN INDIANA
1000 PM EST THU MAR 05 2015

NOTE: "FAIR" INDICATES FEW OR NO CLOUDS BELOW 12,000 FEET WITH NO
SIGNIFICANT WEATHER AND/OR OBSTRUCTIONS TO VISIBILITY.

* THESE STATIONS ARE NOT UNDER NWS QUALITY CONTROL. THEY ALSO MAY NOT
  REPORT WEATHER SUCH AS PRECIPITATION OR FOG.

INZ001>027-060400-
NORTHERN INDIANA

CITY           SKY/WX    TMP DP  RH WIND       PRES   REMARKS
GARY*          PTCLDY    13  -3  47 W6        30.56R WCI   4
LAPORTE*       PTCLDY     6  -2  70 CALM      30.53S
SOUTH BEND     PTCLDY     8   1  73 S5        30.53R WCI   0
GOSHEN         PTCLDY     6   0  76 W5        30.52R WCI  -3
ANGOLA*        CLEAR     10   7  85 CALM      30.48R
FORT WAYNE     CLEAR      9   2  73 W5        30.53R WCI   1
PERU/GRISSOM   MOCLDY     6  -2  70 W8        30.53R WCI  -7

$$
INZ028>050-060400-
CENTRAL INDIANA

CITY           SKY/WX    TMP DP  RH WIND       PRES   REMARKS
LAFAYETTE      MOCLDY     6   0  76 NW3       30.57F
KOKOMO*          N/A    N/A N/A N/A MISG        N/A
MUNCIE*        PTCLDY    10   5  80 W5        30.53R WCI   2
INDIANAPOLIS   PTCLDY    10   1  67 NW7       30.54R WCI  -1

$$
MIZ043>046-050>051-056>058-064>065-071>073-077>080-060400-
SOUTHWEST LOWER MICHIGAN

CITY           SKY/WX    TMP DP  RH WIND       PRES   REMARKS
BATTLE CREEK   CLEAR      8   1  73 W5        30.49R WCI   0
BENTON HARBOR  PTCLDY     6   3  87 CALM      30.52S
COLDWATER*     CLEAR      8   0  70 CALM      30.49R
HILLSDALE*     CLEAR      8   0  70 CALM      30.46R
HOLLAND        PTCLDY     3  -2  79 CALM      30.51S
GRAND RAPIDS   PTCLDY     8   1  73 SW6       30.49R WCI  -2
KALAMAZOO      PTCLDY     8   2  76 W3        30.50R
STURGIS*       CLEAR     10   3  72 CALM      30.50R
THREE RIVERS*  FAIR       8   4  82 CALM      30.52R

$$
OHZ001>008-015>018-024>025-060400-
NORTHWEST OHIO

CITY           SKY/WX    TMP DP  RH WIND       PRES   REMARKS
DEFIANCE       CLEAR      6   0  76 SW3       30.53R
FINDLAY        CLEAR      8   1  73 S5        30.51R WCI   0
TOLEDO EXPRESS CLEAR      6  -1  73 CALM      30.51R
TOLEDO METCALF CLEAR     10  -1  61 CALM      30.52S
LIMA           CLEAR     11   3  70 S3        30.50R

$$
AND FOR LAKE MICHIGAN COASTAL AND OPEN LAKE BUOY OBSERVATIONS

STATION/POSITION TEMP    WIND        PRES    VSBY  WAVE
                 AIR SEA DIR/SP/G                  HT/PER
                 (F)     (DEG/KT/KT) (MB)    (MI)  (FT/S)
CALUMET HARBOR    12     270/  4/  8 1032.8F
MICHIGAN CITY     14     180/  3/  4   N/A
SAINT JOSEPH      12     140/  3/  6 1033.5F

$$
&&


USA.gov is the U.S. government's official web portal to all federal, state and local government web resources and services.